Flag for Canada Weather past 2 weeks in Winnipeg, Manitoba, Canada

Now
57 °F

Cool.


Feels Like: 57 °F
Forecast: 54 / 74 °F
Wind: No wind

Location: Winnipeg The Forks

Current Time: Aug 5, 2015 at 5:46:24 AM

Latest Report: Aug 5, 2015 at 5:00 AM


Visibility: N/A

Pressure: 30.03 "Hg

Humidity: 83%

Dew point: 52 °F

Location of WinnipegLocation

Historic Weather in Winnipeg — Graph

°F

Winnipeg temperature yesterday

Maximum temperature yesterday: 70 °F (at 7:00 PM)
Minimum temperature yesterday: 54 °F (at 6:00 AM)
Average temperature yesterday: 62 °F

Past Weeks' High & Low Weather Summary

 TemperatureHumidityPressure
High89 °F (Jul 26, 5:00 PM)97% (Jul 24, 3:00 AM)30.06 "Hg (Jul 24, 3:00 AM)
Low54 °F (Aug 4, 6:00 AM)30% (Aug 2, 4:00 PM)29.27 "Hg (Jul 29, 1:00 AM)
Average71 °F63%29.81 "Hg
* Reported Jul 21 5:00 AM — Aug 5 4:00 AM, Winnipeg, Weather by CustomWeather, © 2015

Note: Actual official high and low records may vary slightly from our data, if they occured in-between our weather recording intervals... More about our weather records

Advertising

Winnipeg weather history for previous 24 hours

 ConditionsComfort  
Time TempWeatherWind HumidityBarometerVisibility
4:00 AM
Wed, Aug 5
58 °FCool.1 mph80%30.04 "HgN/A
12:00 AM60 °FCool.1 mph78%30.06 "HgN/A
11:00 PM
Tue, Aug 4
61 °FCool.No wind73%30.05 "HgN/A
10:00 PM63 °FMild.2 mph67%30.04 "HgN/A
9:00 PM65 °FMild.3 mph61%30.03 "HgN/A
8:00 PM67 °FMild.3 mph60%30.03 "HgN/A
7:00 PM70 °FMild.3 mph59%30.02 "HgN/A
3:00 PM68 °FMild.2 mph57%30.03 "HgN/A
2:00 PM67 °FMild.5 mph60%30.04 "HgN/A
1:00 PM65 °FMild.5 mph63%30.04 "HgN/A
12:00 PM64 °FMild.5 mph69%30.04 "HgN/A
11:00 AM63 °FMild.6 mph67%30.05 "HgN/A
10:00 AM62 °FCool.2 mph67%30.04 "HgN/A
9:00 AM60 °FCool.5 mph70%30.03 "HgN/A
8:00 AM59 °FCool.3 mph70%30.03 "HgN/A
7:00 AM55 °FCool.2 mph87%30.01 "HgN/A
6:00 AM54 °FCool.2 mph88%29.99 "HgN/A
5:00 AM55 °FCool.2 mph85%29.99 "HgN/A
Weather by CustomWeather, © 2015

See weather overviewHow to use our weather pages